RYR4CJ LIRP-LMML

Flight info

Callsign RYR4CJ
Flight time 1h 27m
Altitude 31000
Route DOCME M729 ELB DCT VELAD DCT TINTO DCT POKAV DCT GIANO DCT MARON DCT EKOLA L12 GZO
Aircraft B738/M-SDE2E3FGHIRWXY/LB1

Departure

Time 2026-05-05 10:07
Airport Pisa International Airport (LIRP)

Arrival

Time 2026-05-05 11:34
Airport Malta International Airport (LMML)
Time Latitude Longitude Altitude Speed Heading
2026-05-05 09:42 43.69764 10.39861 14 ft 0 kts
2026-05-05 09:57 43.69763 10.39860 14 ft 2 kts
2026-05-05 09:57 43.69741 10.39856 14 ft 4 kts
2026-05-05 09:58 43.69718 10.39858 18 ft 4 kts 335°
2026-05-05 09:58 43.69703 10.39876 14 ft 3 kts 287°
2026-05-05 09:58 43.69701 10.39888 14 ft 1 kts 274°
2026-05-05 10:01 43.69701 10.39881 14 ft 2 kts 274°
2026-05-05 10:01 43.69700 10.39839 14 ft 6 kts 254°
2026-05-05 10:01 43.69656 10.39800 14 ft 9 kts 194°
2026-05-05 10:01 43.69583 10.39784 14 ft 12 kts 188°
2026-05-05 10:02 43.69492 10.39776 14 ft 14 kts 156°
2026-05-05 10:02 43.69438 10.39881 15 ft 14 kts 160°
2026-05-05 10:02 43.69335 10.39899 16 ft 15 kts 172°
2026-05-05 10:02 43.69230 10.39917 21 ft 15 kts 172°
2026-05-05 10:03 43.69127 10.39871 20 ft 19 kts 216°
2026-05-05 10:03 43.69008 10.39747 21 ft 24 kts 217°
2026-05-05 10:03 43.68863 10.39598 18 ft 28 kts 217°
2026-05-05 10:03 43.68700 10.39430 18 ft 31 kts 217°
2026-05-05 10:04 43.68523 10.39247 17 ft 33 kts 216°
2026-05-05 10:04 43.68336 10.39054 15 ft 34 kts 217°
2026-05-05 10:04 43.68141 10.38854 14 ft 35 kts 217°
2026-05-05 10:04 43.67953 10.38660 14 ft 32 kts 216°
2026-05-05 10:05 43.67785 10.38486 14 ft 29 kts 217°
2026-05-05 10:05 43.67644 10.38344 12 ft 16 kts 204°
2026-05-05 10:05 43.67582 10.38410 13 ft 12 kts 126°
2026-05-05 10:05 43.67534 10.38498 16 ft 11 kts 127°
2026-05-05 10:06 43.67554 10.38579 17 ft 8 kts 37°
2026-05-05 10:06 43.67564 10.38589 17 ft 0 kts 36°
2026-05-05 10:06 43.67626 10.38653 18 ft 36 kts 37°
2026-05-05 10:07 43.68038 10.39078 15 ft 111 kts 37°
2026-05-05 10:07 43.68827 10.39894 34 ft 168 kts 37°
2026-05-05 10:07 43.69828 10.40882 631 ft 181 kts 36°
2026-05-05 10:07 43.70902 10.41950 1194 ft 202 kts 37°
2026-05-05 10:08 43.72089 10.43054 2018 ft 205 kts 27°
2026-05-05 10:08 43.73420 10.43634 2928 ft 200 kts 356°
2026-05-05 10:08 43.74747 10.43290 3756 ft 199 kts 334°
2026-05-05 10:08 43.75590 10.42729 4081 ft 206 kts 323°
2026-05-05 10:09 43.76788 10.41609 4655 ft 209 kts 314°
2026-05-05 10:09 43.77699 10.40070 5275 ft 203 kts 293°
2026-05-05 10:09 43.78160 10.38289 5976 ft 199 kts 275°
2026-05-05 10:09 43.78264 10.36362 6455 ft 208 kts 272°
2026-05-05 10:10 43.78498 10.34333 6987 ft 209 kts 279°
2026-05-05 10:10 43.78801 10.32358 7628 ft 214 kts 277°
2026-05-05 10:10 43.79092 10.30282 8138 ft 224 kts 277°
2026-05-05 10:10 43.79385 10.28162 8919 ft 224 kts 277°
2026-05-05 10:11 43.79676 10.26033 9693 ft 226 kts 277°
2026-05-05 10:11 43.79741 10.23878 10366 ft 225 kts 253°
2026-05-05 10:11 43.79046 10.21973 11034 ft 224 kts 229°
2026-05-05 10:11 43.77818 10.20626 11701 ft 230 kts 207°
2026-05-05 10:12 43.76290 10.19916 12391 ft 234 kts 198°
2026-05-05 10:12 43.74696 10.19377 13072 ft 237 kts 197°
2026-05-05 10:12 43.73048 10.19044 13742 ft 246 kts 180°
2026-05-05 10:12 43.71380 10.19733 14345 ft 259 kts 154°
2026-05-05 10:13 43.70010 10.21489 14679 ft 287 kts 126°
2026-05-05 10:13 43.69300 10.24171 15106 ft 305 kts 108°
2026-05-05 10:13 43.68812 10.27049 15719 ft 310 kts 108°
2026-05-05 10:13 43.68318 10.29958 16367 ft 312 kts 108°
2026-05-05 10:14 43.67572 10.32748 16955 ft 307 kts 130°
2026-05-05 10:14 43.66108 10.34780 17589 ft 295 kts 155°
2026-05-05 10:14 43.64221 10.35787 18021 ft 295 kts 176°
2026-05-05 10:14 43.62152 10.35774 18277 ft 302 kts 196°
2026-05-05 10:15 43.60152 10.34867 18796 ft 304 kts 204°
2026-05-05 10:15 43.58188 10.33763 19402 ft 306 kts 205°
2026-05-05 10:15 43.56218 10.32615 19991 ft 309 kts 206°
2026-05-05 10:15 43.54227 10.31453 20560 ft 313 kts 206°
2026-05-05 10:16 43.52214 10.30287 21118 ft 316 kts 206°
2026-05-05 10:16 43.50173 10.29114 21676 ft 319 kts 206°
2026-05-05 10:16 43.48138 10.27953 22216 ft 322 kts 206°
2026-05-05 10:16 43.46053 10.26768 22760 ft 326 kts 206°
2026-05-05 10:17 43.43949 10.25577 23310 ft 329 kts 206°
2026-05-05 10:17 43.41817 10.24371 23803 ft 332 kts 206°
2026-05-05 10:17 43.39672 10.23161 24275 ft 334 kts 206°
2026-05-05 10:17 43.37515 10.21946 24746 ft 336 kts 206°
2026-05-05 10:18 43.35347 10.20726 25199 ft 338 kts 206°
2026-05-05 10:18 43.33160 10.19495 25646 ft 341 kts 206°
2026-05-05 10:18 43.30959 10.18258 26094 ft 343 kts 206°
2026-05-05 10:18 43.28743 10.17013 26526 ft 345 kts 207°
2026-05-05 10:19 43.26512 10.15761 26953 ft 348 kts 207°
2026-05-05 10:19 43.24262 10.14499 27386 ft 350 kts 207°
2026-05-05 10:19 43.22003 10.13233 27818 ft 352 kts 207°
2026-05-05 10:19 43.19724 10.11957 28230 ft 355 kts 207°
2026-05-05 10:20 43.17432 10.10676 28638 ft 357 kts 206°
2026-05-05 10:20 43.14983 10.09883 28981 ft 371 kts 188°
2026-05-05 10:20 43.12364 10.10182 29235 ft 389 kts 172°
2026-05-05 10:20 43.09792 10.11632 29312 ft 409 kts 158°
2026-05-05 10:21 43.07266 10.13524 29419 ft 420 kts 156°
2026-05-05 10:21 43.04700 10.15529 29494 ft 429 kts 156°
2026-05-05 10:21 42.99414 10.19666 29677 ft 445 kts 156°
2026-05-05 10:22 42.96700 10.21757 29887 ft 450 kts 156°
2026-05-05 10:22 42.93961 10.23849 30201 ft 451 kts 156°
2026-05-05 10:22 42.91227 10.25927 30635 ft 448 kts 156°
2026-05-05 10:22 42.88505 10.27989 30980 ft 447 kts 156°
2026-05-05 10:23 42.83061 10.32098 30978 ft 446 kts 156°
2026-05-05 10:23 42.77670 10.36160 30985 ft 445 kts 156°
2026-05-05 10:24 42.72228 10.40169 30983 ft 442 kts 161°
2026-05-05 10:24 42.66570 10.43353 30994 ft 439 kts 164°
2026-05-05 10:25 42.60871 10.46353 30990 ft 439 kts 164°
2026-05-05 10:25 42.55188 10.49392 30991 ft 439 kts 164°
2026-05-05 10:26 42.49508 10.52473 30995 ft 440 kts 164°
2026-05-05 10:26 42.43829 10.55561 30997 ft 440 kts 164°
2026-05-05 10:27 42.38146 10.58645 30993 ft 440 kts 164°
2026-05-05 10:27 42.32454 10.61727 30996 ft 440 kts 164°
2026-05-05 10:28 42.26800 10.64782 30997 ft 440 kts 164°
2026-05-05 10:28 42.21105 10.67852 31001 ft 441 kts 164°
2026-05-05 10:29 42.15416 10.70915 31010 ft 441 kts 164°
2026-05-05 10:29 42.09718 10.73976 31003 ft 440 kts 164°
2026-05-05 10:30 42.04028 10.77026 31006 ft 440 kts 164°
2026-05-05 10:30 41.98333 10.80065 31006 ft 440 kts 165°
2026-05-05 10:31 41.92649 10.83093 31009 ft 439 kts 165°
2026-05-05 10:31 41.86966 10.86116 31013 ft 439 kts 165°
2026-05-05 10:32 41.81338 10.89104 31020 ft 438 kts 165°
2026-05-05 10:32 41.75670 10.92109 31019 ft 438 kts 165°
2026-05-05 10:33 41.70009 10.95103 31023 ft 437 kts 165°
2026-05-05 10:33 41.64351 10.98091 31027 ft 437 kts 165°
2026-05-05 10:34 41.58699 11.01069 31027 ft 436 kts 165°
2026-05-05 10:34 41.53057 11.04038 31031 ft 436 kts 165°
2026-05-05 10:35 41.47411 11.07003 31034 ft 435 kts 165°
2026-05-05 10:35 41.41779 11.09958 31036 ft 435 kts 166°
2026-05-05 10:36 41.36140 11.12914 31043 ft 435 kts 166°
2026-05-05 10:36 41.30516 11.15858 31043 ft 434 kts 166°
2026-05-05 10:37 41.24886 11.18800 31045 ft 434 kts 166°
2026-05-05 10:37 41.19271 11.21728 31049 ft 433 kts 166°
2026-05-05 10:38 41.13657 11.24650 31042 ft 433 kts 167°
2026-05-05 10:38 41.08098 11.27539 31046 ft 432 kts 167°
2026-05-05 10:39 41.02502 11.30441 31046 ft 430 kts 167°
2026-05-05 10:39 40.96932 11.33324 31047 ft 429 kts 167°
2026-05-05 10:40 40.91374 11.36196 31054 ft 428 kts 167°
2026-05-05 10:40 40.85832 11.39055 31051 ft 427 kts 167°
2026-05-05 10:41 40.80310 11.41964 31051 ft 428 kts 165°
2026-05-05 10:41 40.74809 11.44990 31062 ft 428 kts 165°
2026-05-05 10:42 40.66562 11.49527 31050 ft 428 kts 165°
2026-05-05 10:43 40.61089 11.52515 31063 ft 429 kts 165°
2026-05-05 10:43 40.55557 11.55525 31061 ft 431 kts 165°
2026-05-05 10:44 40.50004 11.58539 31059 ft 433 kts 164°
2026-05-05 10:44 40.44426 11.61563 31068 ft 434 kts 164°
2026-05-05 10:45 40.38823 11.64595 31066 ft 436 kts 164°
2026-05-05 10:45 40.33204 11.67630 31065 ft 437 kts 164°
2026-05-05 10:46 40.27572 11.70667 31072 ft 438 kts 164°
2026-05-05 10:46 40.21926 11.73707 31070 ft 439 kts 164°
2026-05-05 10:47 40.16276 11.76742 31069 ft 439 kts 164°
2026-05-05 10:47 40.10664 11.79753 31072 ft 439 kts 164°
2026-05-05 10:48 40.05007 11.82781 31071 ft 439 kts 164°
2026-05-05 10:48 39.99359 11.85800 31073 ft 438 kts 164°
2026-05-05 10:49 39.93722 11.88807 31073 ft 438 kts 164°
2026-05-05 10:49 39.88075 11.91813 31078 ft 438 kts 164°
2026-05-05 10:50 39.82432 11.94812 31072 ft 438 kts 163°
2026-05-05 10:50 39.76785 11.97808 31076 ft 438 kts 163°
2026-05-05 10:51 39.71131 12.00801 31081 ft 439 kts 163°
2026-05-05 10:51 39.65467 12.03796 31081 ft 440 kts 163°
2026-05-05 10:52 39.59793 12.06790 31080 ft 441 kts 163°
2026-05-05 10:52 39.54107 12.09785 31082 ft 441 kts 163°
2026-05-05 10:53 39.48416 12.12778 31081 ft 442 kts 163°
2026-05-05 10:53 39.42714 12.15771 31084 ft 443 kts 163°
2026-05-05 10:54 39.37037 12.18746 31087 ft 443 kts 163°
2026-05-05 10:54 39.31320 12.21737 31084 ft 444 kts 163°
2026-05-05 10:55 39.25594 12.24727 31086 ft 444 kts 163°
2026-05-05 10:55 39.19861 12.27715 31086 ft 445 kts 163°
2026-05-05 10:56 39.14112 12.30707 31084 ft 445 kts 163°
2026-05-05 10:56 39.09335 12.33189 31090 ft 445 kts 163°
2026-05-05 10:57 39.03589 12.36169 31089 ft 445 kts 163°
2026-05-05 10:57 38.97833 12.39150 31088 ft 446 kts 163°
2026-05-05 10:58 38.92077 12.42127 31084 ft 446 kts 163°
2026-05-05 10:58 38.86322 12.45146 31083 ft 449 kts 159°
2026-05-05 10:59 38.80782 12.48923 31084 ft 452 kts 155°
2026-05-05 10:59 38.75310 12.52907 31079 ft 452 kts 155°
2026-05-05 11:00 38.69874 12.56825 31090 ft 451 kts 155°
2026-05-05 11:00 38.64376 12.60725 31091 ft 452 kts 155°
2026-05-05 11:01 38.58862 12.64607 31086 ft 453 kts 155°
2026-05-05 11:01 38.53342 12.68484 31085 ft 453 kts 155°
2026-05-05 11:02 38.47815 12.72360 31084 ft 453 kts 155°
2026-05-05 11:02 38.42290 12.76229 31089 ft 453 kts 155°
2026-05-05 11:03 38.36759 12.80096 31087 ft 453 kts 155°
2026-05-05 11:03 38.31230 12.83954 31078 ft 454 kts 155°
2026-05-05 11:04 38.25690 12.87814 31079 ft 453 kts 155°
2026-05-05 11:04 38.20157 12.91662 31077 ft 453 kts 155°
2026-05-05 11:05 38.14620 12.95506 31073 ft 453 kts 155°
2026-05-05 11:05 38.09117 12.99320 31076 ft 453 kts 155°
2026-05-05 11:06 38.03581 13.03150 31084 ft 453 kts 155°
2026-05-05 11:06 37.98042 13.06974 31080 ft 454 kts 155°
2026-05-05 11:07 37.92496 13.10798 31091 ft 454 kts 155°
2026-05-05 11:07 37.86954 13.14613 31104 ft 454 kts 155°
2026-05-05 11:08 37.81404 13.18437 31095 ft 454 kts 155°
2026-05-05 11:08 37.75911 13.22211 31091 ft 441 kts 155°
2026-05-05 11:09 37.70537 13.25883 31104 ft 438 kts 155°
2026-05-05 11:09 37.65153 13.29555 30672 ft 438 kts 155°
2026-05-05 11:09 37.62487 13.31375 30278 ft 434 kts 155°
2026-05-05 11:10 37.59842 13.33180 29840 ft 431 kts 155°
2026-05-05 11:10 37.57218 13.34969 29391 ft 427 kts 155°
2026-05-05 11:10 37.54618 13.36741 28955 ft 423 kts 155°
2026-05-05 11:10 37.52039 13.38496 28540 ft 419 kts 155°
2026-05-05 11:11 37.49516 13.40212 28105 ft 416 kts 155°
2026-05-05 11:11 37.46979 13.41935 27679 ft 413 kts 155°
2026-05-05 11:11 37.44454 13.43650 27267 ft 411 kts 155°
2026-05-05 11:11 37.41914 13.45373 26850 ft 408 kts 155°
2026-05-05 11:12 37.39457 13.47038 26437 ft 405 kts 155°
2026-05-05 11:12 37.36987 13.48711 26036 ft 403 kts 155°
2026-05-05 11:12 37.34527 13.50376 25630 ft 400 kts 155°
2026-05-05 11:12 37.32083 13.52029 25224 ft 398 kts 155°
2026-05-05 11:13 37.29651 13.53672 24832 ft 396 kts 155°
2026-05-05 11:13 37.27230 13.55307 24415 ft 395 kts 155°
2026-05-05 11:13 37.24813 13.56939 24015 ft 393 kts 154°
2026-05-05 11:13 37.22415 13.58556 23582 ft 391 kts 154°
2026-05-05 11:14 37.20020 13.60171 23119 ft 389 kts 154°
2026-05-05 11:14 37.17646 13.61770 22694 ft 386 kts 154°
2026-05-05 11:14 37.15287 13.63358 22283 ft 383 kts 154°
2026-05-05 11:14 37.12948 13.64930 21889 ft 380 kts 155°
2026-05-05 11:15 37.10580 13.66327 21620 ft 372 kts 160°
2026-05-05 11:15 37.08208 13.67568 21249 ft 368 kts 161°
2026-05-05 11:15 37.05840 13.68763 20881 ft 365 kts 161°
2026-05-05 11:15 37.03487 13.69945 20500 ft 363 kts 161°
2026-05-05 11:16 37.01148 13.71124 20119 ft 361 kts 161°
2026-05-05 11:16 36.98823 13.72303 19746 ft 360 kts 161°
2026-05-05 11:16 36.96509 13.73483 19367 ft 358 kts 161°
2026-05-05 11:16 36.94205 13.74660 18992 ft 357 kts 161°
2026-05-05 11:17 36.91906 13.75837 18602 ft 357 kts 161°
2026-05-05 11:17 36.89612 13.77011 18177 ft 356 kts 161°
2026-05-05 11:17 36.87356 13.78167 17772 ft 354 kts 161°
2026-05-05 11:17 36.85080 13.79332 17378 ft 352 kts 161°
2026-05-05 11:18 36.82818 13.80490 16994 ft 350 kts 161°
2026-05-05 11:18 36.80571 13.81639 16615 ft 347 kts 161°
2026-05-05 11:18 36.78337 13.82780 16245 ft 345 kts 161°
2026-05-05 11:18 36.76122 13.83912 15876 ft 343 kts 161°
2026-05-05 11:19 36.73919 13.85036 15512 ft 341 kts 161°
2026-05-05 11:19 36.71729 13.86153 15152 ft 339 kts 161°
2026-05-05 11:19 36.69552 13.87263 14787 ft 337 kts 161°
2026-05-05 11:19 36.67381 13.88368 14424 ft 336 kts 161°
2026-05-05 11:20 36.65225 13.89466 14065 ft 334 kts 161°
2026-05-05 11:20 36.63079 13.90558 13675 ft 333 kts 160°
2026-05-05 11:20 36.60966 13.91632 13285 ft 331 kts 160°
2026-05-05 11:20 36.58840 13.92712 12909 ft 329 kts 160°
2026-05-05 11:21 36.56728 13.93786 12538 ft 327 kts 160°
2026-05-05 11:21 36.54632 13.94850 12186 ft 324 kts 160°
2026-05-05 11:21 36.52545 13.95909 11828 ft 322 kts 160°
2026-05-05 11:21 36.50472 13.96959 11476 ft 320 kts 160°
2026-05-05 11:22 36.48420 13.97998 11188 ft 316 kts 159°
2026-05-05 11:22 36.46390 13.99025 10852 ft 314 kts 159°
2026-05-05 11:22 36.44357 14.00053 10455 ft 315 kts 159°
2026-05-05 11:22 36.42355 14.01065 10262 ft 308 kts 159°
2026-05-05 11:23 36.40397 14.02055 10130 ft 299 kts 159°
2026-05-05 11:23 36.38494 14.03016 9988 ft 292 kts 159°
2026-05-05 11:23 36.36621 14.03961 9693 ft 289 kts 159°
2026-05-05 11:23 36.34765 14.04897 9409 ft 287 kts 159°
2026-05-05 11:24 36.32922 14.05826 9112 ft 285 kts 159°
2026-05-05 11:24 36.31116 14.06735 8827 ft 283 kts 159°
2026-05-05 11:24 36.29296 14.07652 8541 ft 281 kts 159°
2026-05-05 11:24 36.27488 14.08563 8253 ft 279 kts 158°
2026-05-05 11:25 36.25689 14.09468 7967 ft 278 kts 158°
2026-05-05 11:25 36.23903 14.10366 7683 ft 276 kts 158°
2026-05-05 11:25 36.22125 14.11260 7405 ft 275 kts 158°
2026-05-05 11:25 36.20352 14.12150 7124 ft 274 kts 158°
2026-05-05 11:26 36.18590 14.13036 6847 ft 273 kts 158°
2026-05-05 11:26 36.16832 14.13918 6562 ft 272 kts 158°
2026-05-05 11:26 36.15081 14.14797 6272 ft 271 kts 158°
2026-05-05 11:26 36.13335 14.15673 5981 ft 270 kts 158°
2026-05-05 11:27 36.11603 14.16542 5706 ft 268 kts 158°
2026-05-05 11:27 36.09877 14.17407 5432 ft 267 kts 158°
2026-05-05 11:27 36.08166 14.18264 5227 ft 262 kts 158°
2026-05-05 11:27 36.06496 14.19101 5183 ft 256 kts 158°
2026-05-05 11:28 36.04870 14.19940 5021 ft 256 kts 152°
2026-05-05 11:28 36.03541 14.21394 4897 ft 252 kts 122°
2026-05-05 11:28 36.02809 14.23274 4825 ft 241 kts 111°
2026-05-05 11:28 36.02268 14.25159 4744 ft 226 kts 109°
2026-05-05 11:29 36.01766 14.26944 4636 ft 215 kts 110°
2026-05-05 11:29 36.01186 14.28581 4463 ft 202 kts 130°
2026-05-05 11:29 36.00234 14.29749 4348 ft 186 kts 136°
2026-05-05 11:29 35.99294 14.30907 3881 ft 191 kts 136°
2026-05-05 11:30 35.98372 14.32058 3588 ft 186 kts 136°
2026-05-05 11:30 35.97485 14.33162 3586 ft 175 kts 136°
2026-05-05 11:30 35.96588 14.34272 3326 ft 193 kts 137°
2026-05-05 11:30 35.95628 14.35469 3043 ft 198 kts 135°
2026-05-05 11:31 35.94664 14.36683 2774 ft 197 kts 137°
2026-05-05 11:31 35.93718 14.37860 2529 ft 185 kts 137°
2026-05-05 11:31 35.92831 14.38961 2292 ft 175 kts 137°
2026-05-05 11:31 35.92000 14.39994 2052 ft 166 kts 137°
2026-05-05 11:32 35.91183 14.41008 1857 ft 168 kts 137°
2026-05-05 11:32 35.90360 14.42047 1653 ft 171 kts 138°
2026-05-05 11:32 35.89534 14.43095 1369 ft 170 kts 136°
2026-05-05 11:32 35.88717 14.44106 1150 ft 164 kts 136°
2026-05-05 11:33 35.87924 14.45076 858 ft 159 kts 136°
2026-05-05 11:33 35.87151 14.46020 647 ft 151 kts 136°
2026-05-05 11:33 35.86443 14.46889 527 ft 136 kts 137°
2026-05-05 11:33 35.85790 14.47701 354 ft 131 kts 137°
2026-05-05 11:34 35.85172 14.48459 271 ft 113 kts 135°
2026-05-05 11:34 35.84728 14.49011 258 ft 69 kts 135°
2026-05-05 11:34 35.84477 14.49325 258 ft 32 kts 135°
2026-05-05 11:34 35.84327 14.49508 257 ft 29 kts 135°
2026-05-05 11:35 35.84212 14.49656 255 ft 15 kts 121°
2026-05-05 11:35 35.84269 14.49691 255 ft 13 kts 343°
2026-05-05 11:35 35.84352 14.49662 256 ft 12 kts 344°
2026-05-05 11:35 35.84433 14.49634 257 ft 12 kts 344°
2026-05-05 11:36 35.84506 14.49586 258 ft 12 kts 322°
2026-05-05 11:36 35.84554 14.49531 258 ft 1 kts 314°
2026-05-05 11:37 35.84557 14.49528 258 ft 1 kts 322°
2026-05-05 11:37 35.84570 14.49524 258 ft 2 kts 356°
2026-05-05 11:37 35.84589 14.49537 258 ft 4 kts 41°
2026-05-05 11:37 35.84630 14.49562 258 ft 8 kts
2026-05-05 11:38 35.84683 14.49544 258 ft 8 kts 333°
2026-05-05 11:38 35.84725 14.49505 258 ft 7 kts 317°
2026-05-05 11:38 35.84758 14.49461 258 ft 3 kts 296°
2026-05-05 11:38 35.84742 14.49439 258 ft 4 kts 221°
2026-05-05 11:39 35.84724 14.49418 258 ft 3 kts 224°
2026-05-05 11:39 35.84716 14.49409 258 ft 0 kts 224°